Tracking 19795 objects as of 20-Jul-2019
HD Live streaming from Space Station
objects crossing your sky now

FENGYUN 1C DEB

Track FENGYUN 1C DEB now!
10-day predictions


NORAD ID: 35139
Int'l Code: 1999-025DLT
Perigee: 789.4 km
Apogee: 892.7 km
Inclination: 98.8 °
Period: 101.6 minutes
Semi major axis: 7212 km
RCS: 0.0145 m2 (small)
Launch date: May 10, 1999
Source: People's Republic of China (PRC)
Launch site: Taiyaun Space Center, China (TSC)

Note: This is SATELLITE DEBRIS
aabbcc
Your satellite tracking list
Your tracking list is empty




NASA's NSSDC Master Catalog

Two Line Element Set (TLE):
1 35139U 99025DLT 19200.33479213 +.00000128 +00000-0 +82552-4 0  9997
2 35139 098.7507 232.0582 0071643 190.0150 169.9602 14.17470116310007
Source of the keplerian elements: AFSPC